SCP
0 0 0 0 0 1 1 0 0 0 0 0 0 0 1 1 1 2 2 3 5 4 2 2 2 2 2 3 3 3 3 2 2 2 1 1 1 1 1 1 1 1 1 1 1 1 1 1 0
0 0 0 0 0 0 0 0 0 0 0 0 0 1 1 2 2 2 3 4 5 4 2 2 2 2 2 3 3 3 3 2 2 2 1 1 1 1 1 1 1 1 1 1 1 1 1 1 1
0 0 0 0 0 0 0 0 0 0 0 0 1 1 1 2 2 3 4 6 6 4 2 2 2 3 3 3 3 3 3 2 2 2 1 1 1 1 1 1 1 1 1 1 1 1 1 1 1
0 1 0 0 0 0 0 0 0 0 0 0 1 1 2 2 2 3 5 7 6 4 2 2 3 3 3 2 2 2 2 2 2 2 1 1 1 1 1 1 1 1 1 1 1 1 1 1 1
1 1 0 0 0 0 0 0 0 0 0 0 1 2 3 3 3 4 7 8 6 4 3 3 3 3 3 2 2 2 2 2 2 2 2 1 1 1 1 1 1 1 1 1 0 0 0 0 0
1 1 0 0 0 0 0 0 0 0 0 1 1 2 3 3 3 6 9 9 7 5 3 3 3 4 3 2 2 2 2 2 2 2 2 2 1 1 1 1 1 1 1 1 1 0 0 0 0
1 1 0 0 0 0 0 0 0 0 0 0 1 2 3 3 4 7 9 9 7 5 4 4 4 4 3 3 2 2 2 2 2 2 2 1 1 1 1 1 1 1 1 1 1 1 1 0 0
1 1 0 0 0 0 0 0 0 0 0 1 1 2 3 4 5 8 9 9 7 6 4 5 5 4 3 3 2 2 2 2 2 2 1 1 1 1 1 1 1 1 1 1 1 1 1 0 0
1 1 0 0 0 0 0 0 0 0 1 1 2 3 4 4 5 7 8 8 7 6 5 5 6 5 4 3 2 2 2 2 2 1 1 1 1 1 1 1 1 1 1 1 1 1 1 0 0
1 0 0 0 0 0 0 0 0 1 2 2 3 3 4 5 5 6 6 6 6 5 5 5 6 5 4 3 2 2 2 1 1 1 1 1 1 1 1 1 1 1 1 1 1 1 1 0 0
0 0 0 0 0 0 0 0 0 1 2 2 3 3 4 4 5 5 4 4 4 4 4 5 5 5 5 4 3 2 2 1 1 1 1 1 1 1 1 1 1 1 1 1 1 0 0 0 0
0 0 0 0 0 0 0 0 0 1 1 2 2 3 3 4 4 4 4 3 4 4 4 5 5 5 4 4 3 2 2 1 1 1 1 1 1 1 1 0 0 1 1 1 0 0 0 0 0
0 0 0 0 0 0 0 0 0 1 1 2 3 3 3 3 4 4 4 4 4 4 4 4 5 4 4 3 2 2 2 1 1 1 1 1 1 1 1 0 0 0 1 1 0 0 0 0 0
0 0 0 0 0 0 0 0 0 1 2 2 3 3 3 3 3 4 4 4 4 3 3 4 4 4 3 2 2 1 1 1 0 0 0 1 1 1 1 0 0 0 0 0 0 0 0 0 0
0 0 0 0 0 0 0 0 0 1 2 2 2 2 2 3 3 3 4 4 3 3 3 3 3 3 3 2 1 1 0 0 0 0 0 0 0 0 0 0 0 0 0 0 0 0 0 0 0
0 0 0 0 0 0 0 0 0 1 2 2 1 1 2 2 3 3 3 4 3 3 3 3 3 3 3 2 1 1 1 1 0 0 0 0 0 0 0 0 0 0 0 0 0 0 0 0 0
0 0 0 0 0 0 0 0 0 1 1 2 1 1 1 2 2 3 3 3 3 3 4 3 3 3 2 2 1 1 1 1 0 0 1 1 1 0 0 0 0 0 0 0 0 0 0 0 0
0 0 0 0 0 0 0 0 0 1 1 1 1 1 1 1 2 2 3 3 3 4 4 4 3 3 2 2 1 1 1 0 0 0 0 1 1 1 1 1 0 0 0 0 0 0 0 0 0
0 0 0 0 0 0 0 0 0 0 1 1 1 1 1 1 2 2 3 3 3 3 4 4 4 3 3 2 2 1 1 0 0 0 0 0 1 1 1 1 1 0 0 0 0 0 0 0 0
0 0 0 0 0 0 0 0 0 0 1 1 1 1 1 1 2 2 3 3 3 3 3 4 3 3 3 3 2 1 1 0 0 0 0 0 0 0 1 1 1 0 0 0 0 0 0 0 0
0 0 0 0 0 0 0 0 0 0 0 1 1 1 1 2 2 2 3 3 3 3 3 3 3 3 3 3 2 1 1 0 0 0 0 0 0 0 0 0 0 0 0 0 0 0 0 0 0
0 0 0 0 0 0 0 0 0 0 0 0 1 1 1 2 3 3 3 3 3 4 3 3 3 3 3 3 2 1 1 1 0 0 0 0 0 0 0 0 0 0 0 0 0 0 0 0 0
0 0 0 0 0 0 0 0 0 0 0 0 0 0 1 2 3 3 3 3 4 4 4 3 3 3 3 2 2 2 1 1 0 0 0 0 0 0 0 0 0 0 0 0 0 0 0 0 0
0 0 0 0 0 0 0 0 0 0 0 0 0 0 1 1 3 3 2 3 4 4 4 3 2 3 3 2 2 1 1 1 0 0 0 0 0 0 0 0 0 0 0 0 0 0 0 0 0
0 0 0 0 0 0 0 0 0 0 0 0 0 0 0 1 2 2 2 2 3 4 4 3 2 2 2 2 1 1 0 0 0 0 0 0 0 0 0 0 0 0 0 0 0 0 0 0 0
0 0 0 0 0 0 0 0 0 0 0 0 0 1 0 1 2 2 2 2 3 3 3 3 2 2 2 1 1 1 0 0 0 0 0 0 0 0 0 0 0 0 0 0 0 0 0 0 0
0 0 0 0 0 0 0 0 0 0 0 0 1 1 0 1 1 2 2 2 2 3 3 3 2 2 2 2 1 1 1 1 0 0 0 0 0 0 0 0 0 0 0 0 0 0 0 0 0
0 0 0 0 0 0 0 0 0 0 0 0 0 0 0 0 1 2 2 2 2 3 3 2 2 2 2 2 2 2 1 1 1 1 0 0 0 0 0 0 0 0 0 0 0 0 0 0 0
0 0 0 0 0 0 0 0 0 0 0 0 0 0 0 0 1 1 1 1 2 3 3 2 1 1 2 2 2 2 2 2 1 1 1 1 0 0 0 0 0 0 0 0 0 0 0 0 0
0 0 0 0 0 0 0 0 0 0 0 0 0 0 0 0 1 1 1 1 2 3 3 2 1 1 1 2 2 3 2 2 2 1 1 1 1 0 0 0 0 0 0 0 0 0 0 0 0
Wind_Speed
3 2 2 3 5 3 5 7 4 2 2 1 2 6 7 5 4 5 4 9 13 13 11 13 15 16 16 16 16 15 15 15 15 15 15 14 15 15 14 14 14 14 14 14 14 14 14 14 13
1 1 3 4 4 3 6 6 6 6 5 3 3 4 6 4 3 7 6 11 15 13 11 12 15 16 16 17 16 16 15 15 15 14 14 14 14 14 14 14 14 14 14 14 14 14 13 13 13
1 1 3 4 4 7 7 5 6 5 2 2 3 4 4 4 4 4 7 14 13 12 10 12 16 17 17 17 17 16 15 15 14 14 14 14 14 14 14 14 14 14 13 13 13 13 12 12 12
2 2 3 2 7 7 6 4 3 2 1 2 5 5 3 1 3 6 13 14 14 11 10 12 16 17 17 16 16 16 15 15 15 14 14 14 14 14 14 13 13 13 13 13 12 12 12 12 12
2 3 3 3 7 6 6 5 3 2 1 1 5 6 2 4 7 13 14 14 14 11 9 12 16 16 16 16 16 16 15 15 15 14 14 14 14 14 14 13 12 12 12 12 11 11 11 11 11
2 3 4 6 7 5 5 5 2 1 1 1 5 6 2 2 8 11 13 12 12 12 10 10 15 15 16 16 15 15 15 15 15 15 14 14 14 14 13 13 12 12 11 11 11 11 11 11 11
4 4 5 5 5 5 6 3 3 3 3 3 6 7 4 3 7 11 12 12 11 10 9 8 9 11 14 15 15 15 15 15 15 14 14 14 14 13 13 12 12 11 11 11 11 10 11 11 11
4 4 4 5 5 6 4 2 2 4 3 2 5 9 7 7 9 11 12 11 11 9 9 8 8 8 8 9 13 14 14 15 14 14 13 13 12 12 12 11 11 11 10 10 10 10 10 10 10
3 3 6 6 6 4 3 2 1 1 4 3 2 4 7 13 13 13 12 10 10 9 8 8 8 7 7 7 10 11 13 13 13 11 13 10 6 5 6 9 10 10 9 9 9 9 9 9 9
4 6 8 5 4 3 2 2 2 2 3 3 4 5 10 13 14 15 14 13 12 11 9 7 8 8 7 7 6 5 5 6 6 5 6 5 4 4 6 8 9 9 8 8 8 8 8 6 4
6 7 4 4 3 1 1 1 1 5 3 5 9 12 13 13 13 13 13 12 12 11 10 8 8 8 7 6 5 3 3 4 5 6 6 5 4 4 4 3 4 4 5 4 5 5 3 3 3
5 5 4 4 2 1 1 1 1 2 4 6 11 16 14 13 14 13 13 12 11 11 10 9 8 7 7 6 5 4 4 3 4 4 6 5 3 3 3 2 2 2 2 2 3 2 3 3 3
5 4 4 5 3 2 1 1 1 1 2 6 10 12 12 11 10 9 10 11 11 11 10 9 9 9 7 6 5 5 4 4 4 4 4 5 4 4 3 2 2 2 2 2 2 2 3 3 3
5 4 4 4 4 2 2 2 2 3 4 8 10 10 9 10 10 9 10 11 11 11 11 9 9 9 8 6 5 4 4 4 4 4 4 5 4 4 3 3 2 2 2 2 2 2 2 2 2
2 3 4 4 3 3 2 2 3 4 6 8 8 8 7 7 8 10 11 11 12 11 10 10 10 8 8 7 6 5 4 4 4 4 4 5 5 4 4 3 2 2 2 2 2 3 2 2 3
3 3 4 5 4 3 5 6 4 4 8 7 7 6 7 6 6 6 8 9 10 10 10 10 9 9 8 7 6 5 4 4 4 4 4 5 5 5 4 3 2 2 2 2 2 2 2 2 2
4 6 7 4 4 4 5 5 4 4 7 7 6 6 7 6 5 5 6 8 9 11 11 10 9 10 9 7 6 5 4 4 4 4 4 4 5 5 4 3 2 3 3 2 2 2 2 2 2
8 6 6 7 4 5 5 5 3 3 7 7 7 6 7 7 7 6 6 7 9 9 10 10 10 9 9 7 5 4 4 3 3 3 4 5 4 5 4 3 3 3 3 2 2 2 2 1 1
5 6 5 5 3 4 6 6 5 5 5 6 7 7 7 7 5 5 6 7 8 8 9 10 10 10 9 7 6 5 4 3 2 2 4 4 4 4 4 3 3 3 3 2 2 2 2 2 2
4 5 5 2 3 4 4 6 5 5 7 9 9 9 8 6 4 5 6 6 8 10 10 10 11 10 9 7 5 4 4 3 2 2 2 3 4 4 4 4 3 3 3 3 2 2 2 2 2
7 7 6 4 1 1 3 4 5 3 3 4 6 7 8 9 9 8 7 7 8 9 10 10 10 10 8 7 6 5 4 3 2 2 2 2 3 4 4 4 3 3 3 2 2 2 3 1 1
7 5 5 5 4 3 5 4 6 4 4 5 6 6 6 7 7 8 9 8 9 9 8 8 9 9 8 9 9 10 7 5 4 3 2 2 3 3 4 4 4 3 2 2 2 2 2 2 1
3 2 3 5 4 2 3 4 6 4 7 8 8 7 6 6 7 8 9 10 9 8 8 7 8 8 8 8 9 9 6 4 3 3 4 3 2 3 3 4 3 3 2 2 2 2 2 2 1
1 2 2 2 3 5 7 6 6 6 10 8 6 6 6 5 5 6 6 6 6 6 6 7 8 7 7 8 8 9 9 7 6 5 4 3 2 2 2 3 3 3 2 2 2 2 2 1 1
4 5 3 3 4 6 6 6 7 5 5 7 8 7 6 5 5 5 6 6 6 7 7 7 9 8 7 8 7 7 8 9 9 7 6 5 3 2 2 2 2 2 2 2 2 2 2 2 2
7 6 5 5 6 2 5 7 5 3 2 3 5 5 5 4 4 5 6 7 6 7 7 8 8 8 7 7 6 6 6 5 5 5 5 5 4 3 3 3 2 2 2 2 2 2 1 1 1
6 5 3 2 2 2 4 3 4 2 1 2 4 4 4 4 4 4 5 5 5 6 7 8 8 7 7 7 6 5 6 5 5 5 4 3 3 3 3 3 3 2 2 2 2 2 1 1 1
3 4 4 3 4 3 3 3 4 2 3 3 4 3 3 3 3 3 3 3 3 4 4 6 7 7 6 6 6 5 5 5 5 5 5 4 4 3 4 3 3 2 2 2 2 1 1 1 1
3 3 3 3 2 4 3 4 2 4 4 5 4 3 3 3 3 3 2 2 3 3 4 4 5 5 5 5 5 5 5 5 5 5 5 5 4 4 4 4 3 3 2 2 2 2 2 2 1
2 4 5 4 3 2 3 4 2 1 1 2 2 2 2 2 2 3 3 3 3 3 3 3 4 4 4 4 5 4 5 5 5 5 4 4 4 4 4 4 3 3 2 2 3 3 2 3 2
Wind_Direction
306 356 62 58 63 69 230 238 234 234 211 203 118 109 115 118 144 153 133 137 134 140 144 141 138 134 131 128 125 122 119 115 114 112 110 107 105 103 100 97 93 89 87 85 83 81 79 76 75
25 36 63 68 113 187 246 239 229 229 197 162 103 94 88 87 87 111 125 140 136 138 140 139 136 133 131 129 127 124 121 118 116 114 112 110 107 104 101 98 94 91 88 85 83 81 79 75 73
6 113 98 101 165 196 226 232 217 241 231 159 93 64 100 120 122 129 143 138 132 134 136 138 136 133 131 130 127 124 123 120 118 116 114 111 108 106 102 98 95 93 90 86 84 81 78 75 71
86 75 73 133 220 225 228 234 218 206 291 81 113 80 56 48 149 136 136 132 129 131 133 138 136 135 133 130 128 125 123 123 120 118 115 113 110 106 102 98 96 94 91 88 85 82 78 74 69
77 105 134 216 233 245 244 253 246 209 194 124 114 105 58 350 112 126 132 131 131 131 134 139 136 135 133 131 129 126 124 122 120 118 116 115 112 108 104 100 98 96 93 91 87 82 77 71 66
109 112 158 213 230 249 249 248 250 197 177 140 112 112 105 93 119 131 133 131 131 132 132 133 134 134 132 132 131 128 125 123 121 119 117 116 112 109 106 103 99 97 94 91 86 81 75 71 66
152 152 190 202 217 240 241 231 188 195 176 180 138 112 130 138 134 131 128 126 126 128 128 127 128 127 128 128 128 126 124 122 120 118 115 113 110 108 106 103 99 96 92 89 85 80 76 71 68
163 151 197 208 203 228 234 191 198 180 184 151 126 137 163 165 139 124 120 121 122 122 124 122 120 121 121 122 123 122 121 120 117 114 111 109 107 106 103 100 98 95 90 87 85 79 75 72 69
141 160 206 205 195 225 217 184 285 151 114 76 77 155 157 141 133 126 124 125 129 130 128 126 124 120 119 121 122 120 119 117 114 111 107 101 95 96 97 96 95 93 89 87 84 77 72 71 66
167 198 213 211 201 214 214 182 185 102 88 77 67 83 124 136 139 140 145 147 147 146 141 136 132 129 126 125 116 112 113 113 110 109 107 101 98 96 96 93 92 90 84 80 75 71 67 61 53
186 205 218 250 248 242 241 221 176 136 163 167 151 144 142 145 146 148 152 155 154 150 146 143 139 135 129 125 124 114 113 111 110 113 114 109 97 91 83 82 76 70 67 58 57 54 48 52 55
199 226 215 246 263 262 242 207 83 161 189 170 158 151 149 154 158 158 157 155 151 151 150 148 144 136 131 129 128 127 125 122 121 123 122 116 107 97 94 88 80 69 62 64 56 56 50 52 54
225 231 233 248 266 247 226 213 150 248 164 133 138 143 152 158 160 156 152 150 151 153 154 155 149 144 139 133 135 130 130 127 127 124 123 122 121 118 107 97 84 75 71 76 72 65 57 52 50
215 234 256 255 263 270 186 247 139 227 136 128 141 153 162 162 161 153 153 155 158 158 157 155 152 147 142 138 136 133 132 129 123 124 127 124 123 124 116 101 89 79 77 85 92 79 67 50 48
194 215 269 255 225 228 141 277 218 194 143 141 154 162 165 166 159 164 166 163 163 159 155 156 154 148 145 141 139 133 133 130 127 127 126 123 124 126 121 111 97 85 79 78 78 66 58 50 41
161 178 220 243 197 207 155 228 237 181 153 161 167 165 166 174 170 170 167 161 159 154 154 157 155 150 146 141 137 134 132 130 129 127 124 123 124 124 116 110 103 93 83 74 74 65 56 41 31
172 197 205 230 197 173 170 219 240 195 159 168 177 177 173 175 176 175 171 164 161 159 156 153 152 151 146 137 132 128 125 124 128 124 123 125 124 123 118 113 106 95 83 70 65 53 63 41 16
189 189 191 201 202 166 183 217 238 198 170 178 182 182 179 183 190 180 175 169 160 158 155 151 149 148 140 130 121 114 109 112 113 120 128 126 123 123 119 115 107 100 91 73 68 64 47 46 3
176 177 192 202 201 163 196 218 232 217 181 183 185 185 188 196 192 173 168 165 154 153 155 155 152 152 147 144 146 144 145 139 121 120 128 128 127 127 122 119 111 107 107 110 99 79 59 28 11
210 192 196 208 200 171 197 234 241 220 202 189 187 190 192 188 179 174 163 160 162 164 165 162 160 159 160 158 152 142 136 132 131 123 115 124 129 134 131 129 128 122 113 99 89 85 78 32 31
218 202 193 190 136 166 140 263 252 249 212 196 193 189 190 187 184 180 171 169 166 168 172 169 167 162 158 146 131 118 97 86 94 122 131 128 132 135 132 133 129 123 122 127 121 114 109 106 18
220 212 207 193 166 213 173 216 252 223 217 207 206 195 193 190 181 177 173 174 176 176 172 169 167 162 157 151 152 153 156 160 177 166 154 140 130 131 130 130 126 124 123 125 131 112 112 122 115
209 213 214 193 176 202 200 187 257 205 213 217 210 202 194 189 178 179 179 180 178 171 167 165 163 161 160 161 161 160 157 153 140 137 138 135 125 127 136 134 129 129 129 130 123 112 105 120 146
151 95 68 78 138 214 205 183 242 212 205 202 203 200 194 188 179 173 169 164 163 160 160 159 159 160 163 164 165 165 162 153 148 152 154 151 140 135 136 135 134 136 136 141 142 131 119 127 133
152 133 149 182 200 227 181 185 238 227 199 192 193 196 190 177 166 162 157 157 160 161 164 164 163 165 166 165 170 172 169 164 167 168 168 163 161 167 173 149 151 148 148 145 137 130 132 148 146
190 169 176 182 192 222 178 208 240 263 230 177 172 172 166 161 161 165 168 166 165 168 165 165 169 168 168 170 172 169 167 167 171 173 170 174 176 176 166 157 151 151 148 143 134 131 150 142 158
170 189 177 128 137 166 212 246 292 345 58 123 137 143 157 163 162 165 165 164 164 168 172 169 167 164 170 170 166 166 168 169 169 168 165 166 164 157 150 152 151 155 157 155 147 151 167 153 176
167 157 137 147 162 195 216 221 218 209 202 177 161 164 172 158 150 150 152 156 158 162 162 162 164 166 166 167 169 168 170 169 166 162 164 166 164 155 151 156 158 158 160 159 153 155 162 153 210
158 155 141 151 189 173 190 245 226 207 200 185 184 171 164 165 161 152 135 124 125 121 131 148 155 153 158 163 161 161 166 163 161 166 171 169 163 160 163 167 164 166 166 171 166 179 176 184 226
171 166 157 167 215 203 172 254 306 263 304 153 148 139 137 138 137 126 113 103 99 107 123 135 147 152 160 160 155 157 160 157 159 167 172 166 164 166 166 164 167 174 176 186 185 195 197 199 216